GENESIS 2 (31789 NORAD) Tracking and Keplerian Element Data

This shows tracking and keplerian element data for the satellite.

Feedback or suggestion? Click here.




ElementValue
Catalog31789
NameGENESIS 2
Epoch Orbit62770
Epoch Day322.80161398
Epoch Year2018
RAAN67.2922
Inclination64.5046
Eccentricity0.0033386
Argument of Perigee315.1728
Mean Anonmoly44.6698
Mean Motion15.16722857
Decay Rate4.33E-06
L11 31789U 07028A 18322.80161398 .00000433 00000-0 32211-4 0 9990
L22 31789 64.5046 67.2922 0033386 315.1728 44.6698 15.16722857627706

Live tracking and technical data element details for GENESIS 2 (NORAD 31789). GENESIS 2 can be tracked NOW for your location showing map with azimuth and elevation plus other details from your city location.

Track the satellite on the map from your city or location and see movement details for azimuth, elevation, latitude, longitude, range, height, and movement on the map or in text.







IsCatalogInMostPopularTable: catalog: 31789, numindb: 55
Update: records affected: 1



GetName: 31789 GENESIS 2

Hit Count: updated at: Tue, 20 Nov 2018 00:51:10 GMT